[[{"header":{"parameterUnit":"m.s-1","parameterCategory":1,"la1":30.2991,"la2":30.254,"lo1":-89.0895,"lo2":-89.0444,"dy":0.0017,"dx":0.0017,"nx":28,"ny":28,"refTime":"2025-11-04T09:00:00:Z","depth":0,"parameterNumber":2,"parameterNumberName":"U-component_of_WINDS"},"data":[0,0,0,0,0,0,0,0,0,0,0,0,0,0,0,0,0,0,0,0,0,0,0,0,0,0,0,0,0,0,0,0,0,0,0,0,0,0,0,0,0,0,0,0,0,0,0,0,0,0,0,0,0,0,0,0,0,0,0.3398,0.3398,0,0.342,0.3421,0.3421,0.3441,0.3441,0.3441,0.3442,0.3463,0.3463,0.3463,0,0,0,0,0,0,0,0,0,0,0,0,0,0.3369,0.337,0.3398,0.3398,0.3398,0.342,0.3421,0.3421,0.3441,0.3441,0.3442,0.3442,0.3463,0.3463,0.3463,0,0,0,0,0,0,0,0,0,0,0,0,0,0.3386,0.337,0.3397,0.3411,0.3412,0.342,0.3421,0.3421,0.3441,0.3441,0.3442,0.3442,0.3462,0.3463,0.3463,0.3459,0,0,0.3465,0.3465,0,0,0,0,0,0,0,0,0.3385,0.3387,0.3409,0.341,0.3412,0.3428,0.3418,0.3434,0.3441,0.343,0.3442,0.3442,0.3451,0.3452,0.3456,0.346,0.3461,0.3465,0.3465,0.3466,0.3466,0,0,0,0,0,0,0,0.3384,0.3386,0.3406,0.3409,0.3411,0.3415,0.3418,0.3421,0.3438,0.3431,0.3432,0.3435,0.3452,0.3455,0.3456,0.3462,0.3465,0.3466,0.3466,0.3466,0.3464,0.3464,0,0,0,0,0,0,0.3381,0.3385,0.3406,0.3407,0.3399,0.3415,0.3418,0.3422,0.3438,0.3441,0.3435,0.3436,0.3454,0.3456,0.3457,0.3454,0.3466,0.3466,0.3466,0.3465,0.3464,0.3464,0,0,0,0,0,0,0.338,0.3382,0.3405,0.3396,0.34,0.3415,0.342,0.3423,0.3426,0.3441,0.3444,0.3435,0.3454,0.3456,0.3459,0.3455,0.3466,0.3467,0.3465,0.3464,0.3464,0.3446,0,0,0,0,0,0,0.3379,0.3382,0.3381,0.3396,0.34,0.3407,0.342,0.3423,0.3427,0.3429,0.3442,0.3445,0.3455,0.3458,0.3459,0.3455,0.3467,0.3465,0.3465,0.3464,0.3447,0.3445,0.3443,0,0,0,0,0,0.3378,0.3375,0.3381,0.3383,0.3399,0.3406,0.3408,0.3421,0.3427,0.3426,0.3435,0.3444,0.3455,0.3458,0.346,0.3456,0.3466,0.3465,0.3464,0.3448,0.3445,0.3443,0,0,0,0,0,0,0.3357,0.3377,0.3384,0.3385,0.3394,0.341,0.3409,0.3418,0.3424,0.3426,0.344,0.3443,0.3444,0.345,0.3453,0.3453,0.3461,0.3461,0.3449,0.3446,0.3444,0.3443,0.3468,0,0,0,0,0,0.3353,0.3358,0.3375,0.3374,0.3378,0.3393,0.3396,0.3405,0.3415,0.3418,0.3428,0.3436,0.3441,0.3444,0.345,0.3448,0.3451,0.3446,0.3444,0.3443,0.3442,0.3442,0.344,0.3461,0.3461,0.3461,0,0,0.3344,0.3355,0.3357,0.337,0.3378,0.3382,0.3396,0.3399,0.3402,0.3418,0.3422,0.3429,0.3439,0.3439,0.344,0.3445,0.3437,0.3442,0.344,0.344,0.3441,0.3439,0.3437,0.3461,0.3461,0.3461,0,0,0.333,0.3339,0.334,0.3348,0.336,0.337,0.337,0.3384,0.339,0.3393,0.3406,0.3409,0.3418,0.3424,0.3429,0.3418,0.3426,0.3419,0.3409,0.3408,0.3407,0.3405,0.3401,0.3399,0.3418,0.3418,0.3418,0,0.3317,0.3324,0.3339,0.3342,0.3347,0.3363,0.3364,0.337,0.3383,0.3386,0.3391,0.3403,0.3411,0.3413,0.341,0.3414,0.3414,0.3417,0.3406,0.3404,0.3403,0.3399,0.3398,0.3417,0.3418,0.3418,0.3418,0,0.3308,0.3313,0.3312,0.3325,0.333,0.3332,0.3346,0.335,0.3358,0.3367,0.337,0.3381,0.3388,0.339,0.3398,0.3393,0.3396,0.3403,0.3412,0.34,0.3397,0.3395,0.3416,0.3416,0.3417,0.3417,0,0,0.328,0.3302,0.3302,0.3308,0.3323,0.3327,0.3329,0.3338,0.334,0.3349,0.3351,0.3358,0.3365,0.337,0.3379,0.3379,0.3369,0.3386,0.3387,0.3383,0.3365,0.3359,0.3357,0.3375,0.3375,0.3375,0.3364,0,0.3268,0.3275,0.3288,0.329,0.3295,0.331,0.3312,0.3321,0.3329,0.3334,0.3343,0.3348,0.3357,0.3361,0.3361,0.337,0.3366,0.3371,0.3377,0.3377,0.3374,0.3355,0.3349,0.3338,0.3363,0.3362,0.3362,0,0.3255,0.3264,0.3266,0.3281,0.3284,0.3285,0.3295,0.3299,0.3309,0.3316,0.3322,0.3332,0.3335,0.3343,0.3347,0.3351,0.3354,0.3359,0.3359,0.3359,0.3368,0.3355,0.3335,0.3333,0.336,0.336,0.3361,0,0.3235,0.3247,0.325,0.3255,0.3272,0.3273,0.328,0.3291,0.3296,0.3304,0.3307,0.3314,0.3318,0.3324,0.3335,0.3341,0.3338,0.3347,0.3343,0.3342,0.3341,0.3341,0.3321,0.3343,0.3343,0.3343,0.3344,0,0.322,0.3221,0.3241,0.3243,0.3245,0.326,0.326,0.3269,0.3278,0.3282,0.3295,0.3298,0.3313,0.3318,0.3327,0.3329,0.333,0.3335,0.3337,0.3334,0.3333,0.3336,0.3336,0.3343,0.3343,0.3343,0.3343,0,0.3197,0.3211,0.3216,0.3232,0.3236,0.3236,0.325,0.3252,0.3262,0.3266,0.3268,0.3283,0.3289,0.3301,0.331,0.3316,0.3316,0.332,0.3312,0.3314,0.3308,0.3308,0.3288,0.3286,0.3311,0.331,0.331,0,0.3186,0.3188,0.3205,0.3208,0.3215,0.3221,0.3226,0.3241,0.3245,0.3257,0.3258,0.3265,0.3271,0.328,0.3291,0.3298,0.3302,0.3295,0.3303,0.33,0.3302,0.3302,0.3302,0.3293,0.3293,0.3292,0.3292,0,0.3166,0.3173,0.318,0.319,0.3195,0.3203,0.3212,0.3214,0.3231,0.3235,0.3242,0.3247,0.3256,0.3263,0.3272,0.3278,0.3288,0.3289,0.3289,0.3285,0.328,0.3282,0.3307,0.329,0.329,0.329,0.329,0.329,0.3149,0.3151,0.3163,0.3171,0.3179,0.3187,0.319,0.32,0.3206,0.3216,0.3224,0.323,0.324,0.3253,0.3259,0.3264,0.3268,0.3267,0.3267,0.3266,0.3264,0.328,0.3265,0.3265,0.3265,0.3265,0.3265,0,0.3129,0.3138,0.3145,0.3157,0.3163,0.3172,0.3182,0.3186,0.3191,0.3201,0.3207,0.3215,0.3221,0.3233,0.3241,0.3242,0.3246,0.3243,0.3243,0.3244,0.326,0.326,0.324,0.324,0.324,0.324,0.324,0.324,0.3119,0.3123,0.3131,0.3139,0.3148,0.3155,0.316,0.3167,0.3174,0.3183,0.3189,0.3197,0.3207,0.3215,0.3222,0.3225,0.3227,0.3222,0.3227,0.3241,0.3243,0.3246,0.3246,0.3223,0.3223,0.3211,0.3211,0.3211]},{"header":{"parameterUnit":"m.s-1","parameterCategory":1,"la1":30.2991,"la2":30.254,"lo1":-89.0895,"lo2":-89.0444,"dy":0.0017,"dx":0.0017,"nx":28,"ny":28,"refTime":"2025-11-04T09:00:00:Z","depth":0,"parameterNumber":3,"parameterNumberName":"V-component_of_WINDS"},"data":[0,0,0,0,0,0,0,0,0,0,0,0,0,0,0,0,0,0,0,0,0,0,0,0,0,0,0,0,0,0,0,0,0,0,0,0,0,0,0,0,0,0,0,0,0,0,0,0,0,0,0,0,0,0,0,0,0,0,-0.6681,-0.6681,0,-0.6743,-0.6744,-0.6744,-0.6777,-0.6777,-0.6777,-0.6777,-0.6846,-0.6848,-0.685,0,0,0,0,0,0,0,0,0,0,0,0,0,-0.6596,-0.6597,-0.6681,-0.6681,-0.6682,-0.6743,-0.6744,-0.6745,-0.6777,-0.6777,-0.6777,-0.6777,-0.6846,-0.6848,-0.685,0,0,0,0,0,0,0,0,0,0,0,0,0,-0.6643,-0.6597,-0.6681,-0.6706,-0.6709,-0.6743,-0.6744,-0.6745,-0.6777,-0.6777,-0.6777,-0.6777,-0.6845,-0.6847,-0.685,-0.6866,0,0,-0.6858,-0.686,0,0,0,0,0,0,0,0,-0.664,-0.6646,-0.6701,-0.6704,-0.6707,-0.6752,-0.6739,-0.6786,-0.6777,-0.6751,-0.6777,-0.6777,-0.6815,-0.682,-0.6832,-0.6869,-0.6872,-0.6859,-0.686,-0.6861,-0.6862,0,0,0,0,0,0,0,-0.6637,-0.6643,-0.6706,-0.6702,-0.6706,-0.6716,-0.6722,-0.6748,-0.6782,-0.6754,-0.6756,-0.6763,-0.6817,-0.6829,-0.6834,-0.6873,-0.6859,-0.6861,-0.6863,-0.6864,-0.6927,-0.6927,0,0,0,0,0,0,-0.6629,-0.664,-0.6704,-0.6707,-0.6673,-0.6717,-0.6725,-0.6738,-0.6782,-0.6789,-0.6763,-0.6764,-0.6825,-0.6831,-0.6836,-0.6858,-0.6861,-0.6864,-0.6865,-0.6927,-0.6927,-0.6927,0,0,0,0,0,0,-0.6627,-0.6634,-0.6701,-0.6675,-0.6684,-0.6718,-0.6733,-0.6739,-0.6751,-0.6789,-0.6796,-0.6769,-0.6825,-0.6833,-0.6858,-0.6861,-0.6865,-0.6868,-0.6927,-0.6927,-0.6927,-0.6901,0,0,0,0,0,0,-0.6624,-0.6633,-0.6638,-0.6674,-0.6685,-0.672,-0.6733,-0.674,-0.6755,-0.6758,-0.6796,-0.6803,-0.6826,-0.6854,-0.6861,-0.6865,-0.687,-0.6927,-0.6927,-0.6927,-0.6902,-0.6901,-0.6899,0,0,0,0,0,-0.6621,-0.6629,-0.6638,-0.6645,-0.6692,-0.672,-0.6726,-0.6751,-0.6755,-0.6762,-0.6786,-0.6802,-0.686,-0.6856,-0.6864,-0.6869,-0.6927,-0.6927,-0.6927,-0.6903,-0.6901,-0.6899,0,0,0,0,0,0,-0.6594,-0.6634,-0.6645,-0.6664,-0.6688,-0.6725,-0.6734,-0.6748,-0.6772,-0.6774,-0.6805,-0.6813,-0.6836,-0.6855,-0.6851,-0.6887,-0.6895,-0.6897,-0.6874,-0.6872,-0.6871,-0.6866,-0.6872,0,0,0,0,0,-0.659,-0.6607,-0.6643,-0.6657,-0.6668,-0.6699,-0.6712,-0.6729,-0.6755,-0.6766,-0.6792,-0.6819,-0.6844,-0.6859,-0.6883,-0.6905,-0.6915,-0.6913,-0.6911,-0.691,-0.6911,-0.6925,-0.6925,-0.6928,-0.6928,-0.6928,0,0,-0.6582,-0.6607,-0.6616,-0.6652,-0.6672,-0.6692,-0.6707,-0.6727,-0.6742,-0.677,-0.6795,-0.6815,-0.6847,-0.6871,-0.6883,-0.6888,-0.6913,-0.691,-0.6909,-0.6911,-0.6925,-0.6925,-0.6925,-0.6928,-0.6928,-0.6928,0,0,-0.6578,-0.6598,-0.6612,-0.6632,-0.6662,-0.6683,-0.6686,-0.6721,-0.6735,-0.676,-0.6782,-0.6802,-0.6843,-0.6865,-0.6882,-0.6887,-0.6903,-0.6894,-0.6887,-0.69,-0.69,-0.69,-0.6903,-0.6903,-0.6895,-0.6895,-0.6895,0,-0.6566,-0.6594,-0.6618,-0.6637,-0.6652,-0.6677,-0.6693,-0.6711,-0.6749,-0.676,-0.6765,-0.6817,-0.684,-0.687,-0.6871,-0.6884,-0.689,-0.689,-0.6898,-0.6898,-0.6898,-0.6901,-0.6902,-0.6894,-0.6894,-0.6894,-0.6894,0,-0.6577,-0.6597,-0.6605,-0.6638,-0.6655,-0.6672,-0.6701,-0.6716,-0.6731,-0.6752,-0.6778,-0.6807,-0.6838,-0.6847,-0.6863,-0.6879,-0.6881,-0.6891,-0.69,-0.6896,-0.69,-0.6901,-0.6892,-0.6893,-0.6893,-0.6893,0,0,-0.6558,-0.6604,-0.6607,-0.6623,-0.6658,-0.6675,-0.6694,-0.6723,-0.6735,-0.676,-0.6778,-0.6813,-0.6822,-0.6841,-0.686,-0.6872,-0.6875,-0.6881,-0.6882,-0.6879,-0.6897,-0.6889,-0.689,-0.6886,-0.6886,-0.6886,-0.6894,0,-0.6559,-0.6592,-0.6615,-0.664,-0.6659,-0.6683,-0.67,-0.6724,-0.6744,-0.6765,-0.6788,-0.6812,-0.6822,-0.6834,-0.6847,-0.6872,-0.6879,-0.6872,-0.6904,-0.6905,-0.6896,-0.6891,-0.6883,-0.6889,-0.6895,-0.6896,-0.6896,0,-0.6566,-0.6588,-0.6614,-0.6648,-0.6657,-0.6672,-0.67,-0.6719,-0.6748,-0.6762,-0.6783,-0.6803,-0.6826,-0.6832,-0.6865,-0.686,-0.6875,-0.6889,-0.689,-0.6894,-0.69,-0.6896,-0.6891,-0.6892,-0.6898,-0.6898,-0.6898,0,-0.6549,-0.6587,-0.6608,-0.6621,-0.666,-0.667,-0.6688,-0.6716,-0.6733,-0.6758,-0.677,-0.6798,-0.6814,-0.6837,-0.6864,-0.6866,-0.6895,-0.6904,-0.6909,-0.6908,-0.6914,-0.6914,-0.6912,-0.6923,-0.6923,-0.6923,-0.6923,0,-0.6549,-0.6564,-0.6601,-0.6614,-0.6632,-0.6659,-0.6677,-0.6697,-0.6723,-0.6741,-0.6765,-0.6782,-0.6817,-0.6839,-0.6861,-0.6886,-0.6893,-0.6906,-0.6912,-0.6904,-0.6902,-0.6914,-0.6915,-0.6923,-0.6923,-0.6923,-0.6923,0,-0.6534,-0.6559,-0.6583,-0.6619,-0.6628,-0.664,-0.6672,-0.6686,-0.6707,-0.673,-0.6738,-0.6771,-0.6799,-0.6828,-0.6866,-0.6881,-0.6905,-0.6913,-0.6894,-0.6898,-0.6902,-0.6901,-0.6908,-0.6911,-0.6919,-0.6919,-0.6919,0,-0.6532,-0.6544,-0.6581,-0.6594,-0.661,-0.6631,-0.6647,-0.6675,-0.6691,-0.6726,-0.6737,-0.6765,-0.679,-0.6833,-0.6862,-0.6892,-0.6901,-0.6901,-0.6905,-0.6898,-0.6902,-0.6901,-0.6903,-0.69,-0.69,-0.6899,-0.6899,0,-0.6527,-0.6538,-0.656,-0.6586,-0.6604,-0.6626,-0.665,-0.666,-0.6692,-0.671,-0.6737,-0.6756,-0.6794,-0.6823,-0.6856,-0.6876,-0.6894,-0.6898,-0.6901,-0.6893,-0.6882,-0.6889,-0.6891,-0.6897,-0.6898,-0.6898,-0.6898,-0.6898,-0.6519,-0.6531,-0.6558,-0.6582,-0.6602,-0.6623,-0.6638,-0.6661,-0.6684,-0.6715,-0.6731,-0.6759,-0.6789,-0.6835,-0.6855,-0.6878,-0.6884,-0.6888,-0.6889,-0.689,-0.6888,-0.6878,-0.6885,-0.6885,-0.6885,-0.6885,-0.6885,0,-0.6515,-0.6534,-0.6555,-0.6586,-0.6605,-0.6618,-0.6644,-0.666,-0.6683,-0.6709,-0.6732,-0.6765,-0.6793,-0.6824,-0.6855,-0.6868,-0.6877,-0.6875,-0.6875,-0.6879,-0.6881,-0.6876,-0.6867,-0.6867,-0.6867,-0.6867,-0.6867,-0.6867,-0.6515,-0.6536,-0.6551,-0.6584,-0.6603,-0.6628,-0.6643,-0.6663,-0.6684,-0.6718,-0.6741,-0.6761,-0.679,-0.6823,-0.685,-0.6859,-0.687,-0.6866,-0.6877,-0.6878,-0.6879,-0.6881,-0.6876,-0.6867,-0.6867,-0.6873,-0.6873,-0.6873]}]]